Location: Kawakawa
(35.3830°S, 174.0670°E)
Time: 06:46:33
(UTC+13:00)

SR - All Passes

Search period start: 12 December 2019 00:00
Search period end: 22 December 2019 00:00
Orbit: 573 x 882 km, 66.7° (Epoch: 11 December)

Date Brightness Start Highest point End Pass type
(mag) Time Alt. Az. Time Alt. Az. Time Alt. Az.
12 Dec - 07:44:25 10° SSW 07:48:49 74° ESE 07:53:30 10° NNE daylight
12 Dec - 22:11:37 10° NNW 22:16:21 78° WSW 22:20:47 10° SSE visible
13 Dec - 06:55:10 10° S 06:59:06 32° ESE 07:03:16 10° ENE daylight
13 Dec - 08:37:32 10° WSW 08:40:56 21° WNW 08:44:29 10° NNW daylight
13 Dec - 21:22:16 10° N 21:26:46 44° ENE 21:31:00 10° SE visible
13 Dec - 23:05:54 10° W 23:08:56 17° SW 23:11:51 10° S visible
14 Dec - 06:06:36 10° SSE 06:09:14 15° SE 06:11:56 10° E daylight
14 Dec - 07:47:09 10° SW 07:51:26 50° WNW 07:56:01 10° N daylight
14 Dec - 20:34:01 10° NNE 20:37:18 19° ENE 20:40:28 10° ESE daylight
14 Dec - 22:14:47 10° NW 22:19:04 36° WSW 22:23:09 10° S visible
15 Dec - 06:57:26 10° SSW 07:01:51 68° ESE 07:06:33 10° NE daylight
15 Dec - 21:24:40 10° NNW 21:29:23 84° WSW 21:33:49 10° SSE visible
16 Dec - 06:08:14 10° S 06:12:08 30° ESE 06:16:13 10° ENE daylight
16 Dec - 07:50:25 10° WSW 07:53:59 23° WNW 07:57:44 10° NNW daylight
16 Dec - 20:35:25 10° N 20:39:49 40° ENE 20:43:58 10° SE daylight
16 Dec - 22:18:46 10° W 22:21:56 18° SW 22:25:00 10° S visible
17 Dec - 05:19:46 10° SSE 05:22:14 14° SE 05:24:45 10° E visible
17 Dec - 07:00:08 10° SW 07:04:29 54° WNW 07:09:08 10° N daylight
17 Dec - 19:47:17 10° NNE 19:50:22 17° ENE 19:53:19 10° ESE daylight
17 Dec - 21:27:46 10° NW 21:32:05 38° WSW 21:36:12 10° S visible
18 Dec - 06:10:29 10° SSW 06:14:53 63° ESE 06:19:35 10° NE daylight
18 Dec - 07:55:28 10° W 07:56:26 11° WNW 07:57:24 10° WNW daylight
18 Dec - 20:37:44 10° NNW 20:42:25 90° E 20:46:50 10° SSE daylight
19 Dec - 05:21:19 10° S 05:25:09 28° ESE 05:29:11 10° ENE visible
19 Dec - 07:03:20 10° SW 07:07:02 25° WNW 07:10:56 10° NNW daylight
19 Dec - 19:48:34 10° N 19:52:52 37° ENE 19:56:56 10° SE daylight
19 Dec - 21:31:39 10° W 21:34:56 19° SW 21:38:07 10° S visible
20 Dec - 04:32:57 10° SSE 04:35:14 14° SE 04:37:33 10° E visible
20 Dec - 06:13:07 10° SW 06:17:31 59° WNW 06:22:15 10° NNE daylight
20 Dec - 19:00:36 10° NE 19:03:25 16° ENE 19:06:09 10° ESE daylight
20 Dec - 20:40:45 10° NW 20:45:07 41° WSW 20:49:16 10° SSE daylight
21 Dec - 05:23:30 10° SSW 05:27:54 58° ESE 05:32:36 10° NE visible
21 Dec - 07:07:52 10° W 07:09:29 12° WNW 07:11:10 10° NW daylight
21 Dec - 19:50:47 10° NNW 19:55:27 83° ENE 19:59:51 10° SSE daylight
